QPF
0.00 0.00 0.00 0.00 0.00 0.00 0.00 0.00 0.00 0.00 0.00 0.00 0.00 0.00 0.00 0.00 0.00 0.00 0.00 0.00 0.00 0.00 0.00 0.00 0.00 0.00 0.00 0.00 0.00 0.00 0.00 0.00 0.00 0.00 0.00 0.00 0.00 0.00 0.00 0.00 0.00 0.00 0.00 0.00
0.00 0.00 0.00 0.00 0.00 0.00 0.00 0.00 0.00 0.00 0.00 0.00 0.00 0.00 0.00 0.00 0.00 0.00 0.00 0.00 0.00 0.00 0.00 0.00 0.00 0.00 0.00 0.00 0.00 0.00 0.00 0.00 0.00 0.00 0.00 0.00 0.00 0.00 0.00 0.00 0.00 0.00 0.00 0.00
0.00 0.00 0.00 0.00 0.00 0.00 0.00 0.00 0.00 0.00 0.00 0.00 0.00 0.00 0.00 0.00 0.00 0.00 0.00 0.00 0.00 0.00 0.00 0.00 0.00 0.00 0.00 0.00 0.00 0.00 0.00 0.00 0.00 0.00 0.00 0.00 0.00 0.00 0.00 0.00 0.00 0.00 0.00 0.00
0.00 0.00 0.00 0.00 0.00 0.00 0.00 0.00 0.00 0.00 0.00 0.00 0.00 0.00 0.00 0.00 0.00 0.00 0.00 0.00 0.00 0.00 0.00 0.00 0.00 0.00 0.00 0.00 0.00 0.00 0.00 0.00 0.00 0.00 0.00 0.00 0.00 0.00 0.00 0.00 0.00 0.00 0.00 0.00
0.00 0.00 0.00 0.00 0.00 0.00 0.00 0.00 0.00 0.00 0.00 0.00 0.00 0.00 0.00 0.00 0.00 0.00 0.00 0.00 0.00 0.00 0.00 0.00 0.00 0.00 0.00 0.00 0.00 0.00 0.00 0.00 0.00 0.00 0.00 0.00 0.00 0.00 0.00 0.00 0.00 0.00 0.00 0.00
0.00 0.00 0.00 0.00 0.00 0.00 0.00 0.00 0.00 0.00 0.00 0.00 0.00 0.00 0.00 0.00 0.00 0.00 0.00 0.00 0.00 0.00 0.00 0.00 0.00 0.00 0.00 0.00 0.00 0.00 0.00 0.00 0.00 0.00 0.00 0.00 0.00 0.00 0.00 0.00 0.00 0.00 0.00 0.00
0.00 0.00 0.00 0.00 0.00 0.00 0.00 0.00 0.00 0.00 0.00 0.00 0.00 0.00 0.00 0.00 0.00 0.00 0.00 0.00 0.00 0.00 0.00 0.00 0.00 0.00 0.00 0.00 0.00 0.00 0.00 0.00 0.00 0.00 0.00 0.00 0.00 0.00 0.00 0.00 0.00 0.00 0.00 0.01
0.00 0.00 0.00 0.00 0.00 0.00 0.00 0.00 0.00 0.00 0.00 0.00 0.00 0.00 0.00 0.00 0.00 0.00 0.00 0.00 0.00 0.00 0.00 0.00 0.00 0.00 0.00 0.00 0.00 0.00 0.00 0.00 0.00 0.00 0.00 0.00 0.00 0.00 0.00 0.00 0.00 0.00 0.00 0.00
0.00 0.00 0.00 0.00 0.00 0.00 0.00 0.00 0.00 0.00 0.00 0.00 0.00 0.00 0.00 0.00 0.00 0.00 0.00 0.00 0.00 0.00 0.00 0.00 0.00 0.00 0.00 0.00 0.00 0.00 0.00 0.00 0.00 0.00 0.00 0.00 0.00 0.00 0.00 0.00 0.00 0.00 0.00 0.00
0.00 0.00 0.00 0.00 0.00 0.00 0.00 0.00 0.00 0.00 0.00 0.00 0.00 0.00 0.00 0.00 0.00 0.00 0.00 0.00 0.00 0.00 0.00 0.00 0.00 0.00 0.00 0.00 0.00 0.00 0.00 0.00 0.00 0.00 0.00 0.00 0.00 0.00 0.00 0.00 0.00 0.00 0.00 0.00
0.00 0.00 0.00 0.00 0.00 0.00 0.00 0.00 0.00 0.00 0.00 0.00 0.00 0.00 0.00 0.00 0.00 0.00 0.00 0.00 0.00 0.00 0.00 0.00 0.00 0.00 0.00 0.00 0.00 0.00 0.00 0.00 0.00 0.00 0.00 0.00 0.00 0.00 0.00 0.00 0.00 0.00 0.00 0.00
0.00 0.00 0.00 0.00 0.00 0.00 0.00 0.00 0.00 0.00 0.00 0.00 0.00 0.00 0.00 0.00 0.00 0.00 0.00 0.00 0.00 0.00 0.00 0.00 0.00 0.00 0.00 0.00 0.00 0.00 0.00 0.00 0.00 0.00 0.00 0.00 0.00 0.00 0.00 0.00 0.00 0.00 0.00 0.00
0.00 0.00 0.00 0.00 0.00 0.00 0.00 0.00 0.00 0.00 0.00 0.00 0.00 0.00 0.00 0.00 0.00 0.00 0.00 0.00 0.00 0.00 0.00 0.00 0.00 0.00 0.00 0.00 0.00 0.00 0.00 0.00 0.00 0.00 0.00 0.00 0.00 0.00 0.00 0.00 0.00 0.00 0.00 0.00
0.00 0.00 0.00 0.00 0.00 0.00 0.00 0.00 0.00 0.00 0.00 0.00 0.00 0.00 0.00 0.00 0.00 0.00 0.00 0.00 0.00 0.00 0.00 0.00 0.00 0.00 0.00 0.00 0.00 0.00 0.00 0.00 0.00 0.00 0.00 0.00 0.00 0.00 0.00 0.00 0.00 0.00 0.00 0.00
0.00 0.00 0.00 0.00 0.00 0.00 0.00 0.00 0.00 0.00 0.00 0.00 0.00 0.00 0.00 0.00 0.00 0.00 0.00 0.00 0.00 0.00 0.00 0.00 0.00 0.00 0.00 0.00 0.00 0.00 0.00 0.00 0.00 0.00 0.00 0.00 0.00 0.00 0.00 0.00 0.00 0.00 0.00 0.00
0.00 0.00 0.00 0.00 0.00 0.00 0.00 0.00 0.00 0.00 0.00 0.00 0.00 0.00 0.00 0.00 0.00 0.00 0.00 0.00 0.00 0.00 0.00 0.00 0.00 0.00 0.00 0.00 0.00 0.00 0.00 0.00 0.00 0.00 0.00 0.00 0.00 0.00 0.00 0.00 0.00 0.00 0.00 0.00
0.00 0.00 0.00 0.00 0.00 0.00 0.00 0.00 0.00 0.00 0.00 0.00 0.00 0.00 0.00 0.00 0.00 0.00 0.00 0.00 0.00 0.00 0.00 0.00 0.00 0.00 0.00 0.00 0.00 0.00 0.00 0.00 0.00 0.00 0.00 0.00 0.00 0.00 0.00 0.00 0.00 0.00 0.00 0.00
0.00 0.00 0.00 0.00 0.00 0.00 0.00 0.00 0.00 0.00 0.00 0.00 0.00 0.00 0.00 0.00 0.00 0.00 0.00 0.00 0.00 0.00 0.00 0.00 0.00 0.00 0.00 0.00 0.00 0.00 0.00 0.00 0.00 0.00 0.00 0.00 0.00 0.00 0.00 0.00 0.00 0.00 0.00 0.00
0.00 0.00 0.00 0.00 0.00 0.00 0.00 0.00 0.00 0.00 0.00 0.00 0.00 0.00 0.00 0.00 0.00 0.00 0.00 0.00 0.00 0.00 0.00 0.00 0.00 0.00 0.00 0.00 0.00 0.00 0.00 0.00 0.00 0.00 0.00 0.00 0.00 0.00 0.00 0.00 0.00 0.00 0.00 0.00
0.00 0.00 0.00 0.00 0.00 0.00 0.00 0.00 0.00 0.00 0.00 0.00 0.00 0.00 0.00 0.00 0.00 0.00 0.00 0.00 0.00 0.00 0.00 0.00 0.00 0.00 0.00 0.00 0.00 0.00 0.00 0.00 0.00 0.00 0.00 0.00 0.00 0.00 0.00 0.00 0.00 0.00 0.00 0.00
0.00 0.00 0.00 0.00 0.00 0.00 0.00 0.00 0.00 0.00 0.00 0.00 0.00 0.00 0.00 0.00 0.00 0.00 0.00 0.00 0.00 0.00 0.00 0.00 0.00 0.00 0.00 0.00 0.00 0.00 0.00 0.00 0.00 0.00 0.00 0.00 0.00 0.00 0.00 0.00 0.00 0.00 0.00 0.00
0.00 0.00 0.00 0.00 0.00 0.00 0.00 0.00 0.00 0.00 0.00 0.00 0.00 0.00 0.00 0.00 0.00 0.00 0.00 0.00 0.00 0.00 0.00 0.00 0.00 0.00 0.00 0.00 0.00 0.00 0.00 0.00 0.00 0.00 0.00 0.00 0.00 0.00 0.00 0.00 0.00 0.00 0.00 0.00
0.00 0.00 0.00 0.00 0.00 0.00 0.00 0.00 0.00 0.00 0.00 0.00 0.00 0.00 0.00 0.00 0.00 0.00 0.00 0.00 0.00 0.00 0.00 0.00 0.00 0.00 0.00 0.00 0.00 0.00 0.00 0.00 0.00 0.00 0.00 0.00 0.00 0.00 0.00 0.00 0.00 0.00 0.00 0.00
0.00 0.00 0.00 0.00 0.00 0.00 0.00 0.00 0.00 0.00 0.00 0.00 0.00 0.00 0.00 0.00 0.00 0.00 0.00 0.00 0.00 0.00 0.00 0.00 0.00 0.00 0.00 0.00 0.00 0.00 0.00 0.00 0.00 0.00 0.00 0.00 0.00 0.00 0.00 0.00 0.00 0.00 0.00 0.00
0.00 0.00 0.00 0.00 0.00 0.00 0.00 0.00 0.00 0.00 0.00 0.00 0.00 0.00 0.00 0.00 0.00 0.00 0.00 0.00 0.00 0.00 0.00 0.00 0.00 0.00 0.00 0.00 0.00 0.00 0.00 0.00 0.00 0.00 0.00 0.00 0.00 0.00 0.00 0.00 0.00 0.00 0.00 0.00
0.00 0.00 0.00 0.00 0.00 0.00 0.00 0.00 0.00 0.00 0.00 0.00 0.00 0.00 0.00 0.00 0.00 0.00 0.00 0.00 0.00 0.00 0.00 0.00 0.00 0.00 0.00 0.00 0.00 0.00 0.00 0.00 0.00 0.00 0.00 0.00 0.00 0.00 0.00 0.00 0.00 0.00 0.00 0.00
MSLP
1007.28 1007.16 1004.26 1004.14 1005.14 1005.58 1005.40 1005.07 1004.49 1004.40 1004.72 1004.58 1003.34 1003.21 1003.25 1002.38 1002.26 1001.93 1001.41 1001.02 1000.57 1000.02 999.70 1000.56 1000.87 1001.52 1002.21 1002.84 1003.48 1004.25 1005.19 1006.44 1007.01 1007.67 1008.26 1008.94 1009.09 1009.34 1009.52 1009.61 1009.55 1009.52 1009.63 1009.67
1006.52 1003.50 1001.69 1004.50 1005.01 1005.36 1005.38 1004.93 1004.58 1004.62 1004.54 1004.30 1003.55 1002.71 1002.57 1002.27 1001.60 1001.26 1000.72 1000.04 999.82 999.49 999.65 1000.41 1001.17 1002.20 1002.39 1003.03 1003.70 1004.21 1004.90 1006.00 1006.75 1007.32 1008.00 1008.42 1008.85 1009.10 1009.21 1009.30 1009.29 1009.19 1009.22 1009.31
1001.99 997.94 1003.29 1003.70 1004.04 1004.43 1004.35 1004.18 1004.72 1004.35 1004.30 1004.12 1003.77 1002.33 1001.99 1001.27 1000.97 1000.45 999.90 999.64 999.22 999.33 999.39 1000.17 1001.18 1002.08 1003.21 1003.28 1003.85 1004.35 1005.09 1005.97 1006.62 1007.36 1008.01 1008.59 1009.04 1009.08 1008.92 1008.92 1008.97 1009.07 1009.06 1009.16
1002.42 1001.32 1001.65 1002.25 1002.31 1003.49 1003.10 1004.01 1004.47 1004.58 1004.70 1003.27 1003.59 1001.36 1001.36 1000.82 1000.15 999.43 998.74 998.78 998.46 998.95 999.48 1000.22 1001.11 1002.11 1002.99 1003.52 1004.02 1004.49 1005.27 1005.95 1006.72 1007.44 1007.84 1008.26 1008.41 1008.41 1008.60 1008.74 1008.94 1009.04 1009.07 1009.02
1000.04 1000.38 1000.89 1001.09 1000.87 1002.42 1002.20 1003.82 1004.27 1004.56 1004.24 1003.90 1003.45 1002.71 1000.71 1000.52 999.12 998.12 997.90 997.79 998.21 998.61 999.30 1000.11 1001.06 1001.99 1002.85 1003.59 1004.05 1004.76 1005.45 1006.08 1006.82 1007.40 1007.76 1008.01 1008.25 1008.42 1008.55 1008.70 1008.85 1008.96 1009.02 1009.02
1000.98 1000.28 1000.14 998.91 1001.09 1001.69 1002.78 1003.35 1003.93 1004.30 1004.06 1003.00 1002.82 1002.55 1000.32 999.26 997.95 997.35 996.89 997.08 997.90 998.84 999.68 1000.43 1001.36 1002.12 1002.91 1003.61 1004.28 1004.91 1005.53 1006.24 1006.81 1007.46 1007.74 1007.84 1008.02 1008.22 1008.34 1008.50 1008.62 1008.72 1008.91 1009.09
1001.17 1000.42 999.47 999.40 1000.13 1001.14 1001.99 1002.51 1003.00 1003.54 1003.21 1001.72 1001.88 1001.72 999.49 997.61 997.24 997.07 996.69 996.90 998.15 999.22 999.97 1000.71 1001.35 1001.93 1002.94 1003.63 1004.31 1004.98 1005.55 1006.18 1006.84 1007.30 1007.51 1007.68 1007.89 1008.11 1008.23 1008.39 1008.47 1008.58 1008.78 1008.97
1000.70 999.85 998.68 998.15 998.22 998.84 1000.26 1001.08 1001.00 1001.26 1001.22 1000.66 1000.91 1000.27 997.85 996.65 996.02 996.26 996.43 997.04 998.31 999.40 1000.18 1000.80 1001.61 1002.26 1002.85 1003.60 1004.31 1004.85 1005.44 1006.07 1006.70 1007.06 1007.32 1007.61 1007.83 1007.95 1008.20 1008.36 1008.40 1008.62 1008.67 1008.80
1000.64 998.63 997.57 997.60 997.70 998.06 999.23 999.53 1000.30 1000.25 1000.86 1000.22 999.85 998.86 997.31 996.32 995.90 995.74 996.08 997.21 998.40 999.34 1000.27 1000.87 1001.75 1002.52 1002.89 1003.59 1004.30 1004.78 1005.35 1005.94 1006.46 1006.88 1007.13 1007.44 1007.76 1008.11 1008.27 1008.44 1008.69 1008.72 1008.88 1008.94
1002.24 999.37 997.45 997.18 997.57 997.44 997.53 999.38 1000.06 1000.16 1000.02 999.58 998.65 997.95 996.22 995.38 995.08 995.35 996.03 997.05 998.25 999.49 1000.24 1001.10 1001.83 1002.58 1003.06 1003.58 1004.36 1004.91 1005.38 1005.79 1006.29 1006.71 1006.91 1007.22 1007.61 1008.06 1008.29 1008.43 1008.70 1008.77 1008.89 1008.97
1003.53 1000.98 997.96 997.17 995.68 995.57 997.39 997.71 998.62 999.35 999.48 998.56 997.73 996.37 995.54 994.64 994.70 994.91 995.57 996.80 997.98 998.94 1000.05 1001.05 1001.95 1002.67 1003.13 1003.71 1004.26 1004.96 1005.37 1005.79 1006.26 1006.59 1006.86 1007.15 1007.51 1007.95 1008.21 1008.36 1008.69 1008.76 1008.86 1009.05
1004.80 1002.52 998.91 996.07 995.91 995.93 996.24 996.61 997.58 997.95 998.86 998.26 997.49 995.88 995.05 994.85 994.67 995.05 995.47 996.49 997.98 999.13 1000.02 1000.93 1001.84 1002.43 1003.16 1003.70 1004.21 1004.83 1005.31 1005.67 1006.15 1006.47 1006.80 1007.10 1007.47 1007.82 1008.06 1008.30 1008.64 1008.75 1008.75 1008.97
1006.09 1003.29 999.89 997.90 997.37 996.47 995.85 996.47 997.15 997.69 998.05 997.72 997.24 995.57 995.08 994.85 994.83 995.21 995.76 996.60 998.17 999.27 999.95 1000.88 1001.69 1002.24 1002.95 1003.51 1004.07 1004.63 1005.19 1005.61 1006.08 1006.44 1006.74 1007.07 1007.26 1007.64 1007.95 1008.29 1008.61 1008.73 1008.80 1008.90
1006.72 1004.49 1002.05 998.73 997.51 996.77 996.43 996.70 997.25 997.42 997.24 997.03 996.23 995.63 994.44 994.28 994.53 995.34 996.21 997.16 998.05 999.05 999.67 1000.58 1001.33 1001.98 1002.75 1003.26 1003.84 1004.38 1005.02 1005.58 1006.03 1006.38 1006.66 1006.98 1007.28 1007.59 1007.92 1008.33 1008.61 1008.75 1008.80 1008.90
1006.88 1004.96 1003.25 1001.10 999.87 998.75 996.97 996.62 996.84 996.88 996.75 996.53 996.25 995.57 994.76 994.30 994.78 995.22 995.94 997.02 998.21 998.71 999.31 1000.08 1000.75 1001.70 1002.42 1002.99 1003.73 1004.17 1004.81 1005.45 1005.93 1006.29 1006.62 1007.02 1007.30 1007.67 1008.04 1008.42 1008.69 1008.82 1008.88 1009.02
1006.61 1005.19 1003.63 1001.05 1000.04 999.03 997.83 997.23 996.69 996.73 996.87 996.67 996.44 995.47 995.18 994.70 994.65 995.18 995.63 996.48 997.38 997.93 998.83 999.70 1000.49 1001.44 1001.97 1002.62 1003.35 1003.95 1004.63 1005.25 1005.79 1006.23 1006.53 1006.99 1007.27 1007.64 1007.98 1008.40 1008.77 1009.00 1009.08 1009.25
1006.49 1005.57 1004.14 1001.52 1000.33 999.28 997.83 996.86 997.00 997.04 997.05 997.33 996.77 994.61 995.68 994.92 994.33 994.54 995.17 995.75 996.46 997.10 997.92 998.76 999.79 1000.72 1001.49 1002.23 1002.99 1003.66 1004.42 1005.09 1005.64 1006.12 1006.54 1006.91 1007.29 1007.64 1007.94 1008.28 1008.68 1009.07 1009.31 1009.48
1006.13 1005.76 1004.41 1002.34 1000.89 999.10 997.80 997.61 997.00 997.24 997.84 998.13 997.33 996.95 996.95 996.19 995.18 994.73 995.09 995.16 995.81 996.59 997.27 998.31 999.22 1000.22 1001.12 1001.87 1002.74 1003.47 1004.23 1004.85 1005.37 1005.91 1006.33 1006.76 1007.11 1007.62 1007.98 1008.30 1008.64 1009.04 1009.36 1009.59
1006.25 1006.23 1004.51 1002.76 1001.13 999.64 998.94 999.73 999.47 998.81 999.82 1000.33 999.86 999.23 998.45 997.66 996.43 994.25 994.70 994.61 994.96 995.04 995.88 997.03 998.36 999.63 1000.66 1001.52 1002.42 1003.22 1003.91 1004.49 1004.99 1005.50 1006.03 1006.50 1006.90 1007.48 1007.94 1008.27 1008.65 1009.00 1009.26 1009.64
1006.42 1006.63 1005.61 1003.82 1001.90 1000.21 1001.19 1000.83 1000.65 1000.39 1000.77 1001.42 1001.28 1000.42 999.73 998.85 996.96 995.01 996.28 996.22 995.70 996.11 995.73 996.72 998.01 999.38 1000.35 1001.24 1002.16 1002.80 1003.44 1004.05 1004.51 1005.09 1005.73 1006.31 1006.71 1007.20 1007.75 1008.25 1008.68 1009.06 1009.30 1009.59
1006.18 1005.79 1005.63 1004.48 1003.11 1002.16 1002.00 1001.16 1000.87 1001.32 1002.43 1002.06 1001.86 1001.23 1000.53 999.82 998.24 997.44 997.09 996.67 995.90 996.02 996.46 996.48 997.59 998.47 999.54 1000.67 1001.65 1002.25 1002.97 1003.51 1004.12 1004.82 1005.55 1006.21 1006.70 1007.10 1007.59 1008.31 1008.81 1009.07 1009.34 1009.68
1006.34 1006.24 1005.93 1005.40 1003.98 1003.36 1003.06 1001.88 1001.77 1003.15 1002.92 1002.63 1002.01 1001.44 1000.72 1000.04 998.99 998.11 997.36 996.68 996.16 995.78 995.82 996.42 997.01 998.06 999.20 1000.16 1000.94 1001.62 1002.35 1003.02 1003.82 1004.55 1005.26 1005.95 1006.59 1007.01 1007.63 1008.15 1008.73 1009.11 1009.44 1009.80
1007.11 1006.89 1006.35 1006.09 1005.23 1004.74 1004.18 1003.75 1003.56 1003.48 1003.11 1002.50 1001.99 1001.30 1000.60 999.69 998.76 997.92 997.09 996.56 995.85 995.49 995.61 996.29 996.15 997.42 998.78 999.61 1000.11 1000.83 1001.69 1002.65 1003.44 1004.24 1004.91 1005.65 1006.37 1006.95 1007.51 1007.97 1008.50 1009.02 1009.51 1009.65
1007.27 1007.11 1006.64 1006.05 1005.69 1005.09 1004.46 1004.19 1003.88 1003.43 1002.90 1002.31 1001.72 1000.98 1000.19 999.26 998.34 997.47 996.72 995.90 995.18 994.87 994.85 995.44 996.54 996.73 997.95 998.92 999.54 999.98 1001.18 1002.09 1002.94 1003.76 1004.56 1005.34 1006.00 1006.69 1007.30 1007.76 1008.25 1008.54 1009.08 1009.35
1007.49 1007.04 1006.77 1006.32 1005.88 1005.04 1004.35 1004.51 1004.15 1003.45 1002.60 1001.84 1001.13 1000.52 999.78 998.87 997.85 997.17 996.20 995.42 994.58 994.22 994.49 994.80 995.46 995.86 996.78 997.91 998.77 999.81 1000.73 1001.53 1002.37 1003.28 1004.14 1004.99 1005.56 1006.30 1006.93 1007.38 1007.99 1008.27 1008.57 1008.84
1007.58 1007.36 1006.86 1006.54 1006.57 1006.35 1005.39 1004.63 1004.21 1003.46 1002.42 1001.68 1000.70 999.74 999.19 998.57 997.45 996.65 995.79 994.97 994.14 993.41 993.74 994.35 994.92 996.00 996.38 997.25 997.98 998.98 1000.02 1000.88 1001.70 1002.66 1003.51 1004.23 1004.89 1005.70 1006.22 1006.96 1008.05 1008.71 1008.81 1009.05
Thickness
5649 5642 5666 5679 5674 5677 5681 5680 5682 5695 5702 5701 5710 5705 5707 5732 5733 5735 5741 5749 5757 5766 5777 5770 5769 5765 5758 5752 5746 5736 5725 5712 5704 5694 5684 5673 5668 5661 5654 5650 5646 5642 5637 5632
5633 5656 5699 5681 5674 5667 5667 5667 5670 5685 5692 5687 5693 5696 5707 5719 5728 5734 5742 5752 5759 5768 5771 5766 5760 5752 5750 5745 5737 5731 5722 5710 5701 5692 5682 5674 5665 5658 5652 5647 5643 5640 5635 5630
5661 5715 5679 5669 5668 5660 5664 5663 5665 5667 5681 5680 5676 5682 5694 5720 5726 5736 5746 5754 5763 5763 5766 5764 5755 5748 5739 5737 5730 5724 5715 5704 5696 5687 5677 5667 5658 5652 5649 5645 5641 5635 5630 5624
5646 5679 5668 5666 5665 5661 5658 5674 5666 5660 5653 5656 5673 5659 5687 5710 5717 5734 5748 5752 5763 5763 5763 5759 5752 5743 5736 5729 5725 5719 5708 5699 5691 5681 5672 5664 5657 5651 5647 5642 5636 5630 5624 5620
5656 5655 5655 5658 5671 5672 5670 5670 5659 5654 5651 5651 5656 5644 5689 5705 5717 5736 5747 5759 5760 5762 5759 5755 5749 5740 5732 5725 5718 5710 5701 5693 5684 5676 5669 5661 5654 5648 5644 5637 5631 5625 5620 5616
5637 5657 5662 5683 5670 5671 5668 5662 5654 5649 5648 5632 5656 5650 5675 5707 5723 5738 5753 5762 5758 5752 5751 5748 5742 5735 5725 5719 5711 5704 5696 5687 5679 5671 5664 5658 5652 5646 5640 5634 5628 5622 5617 5612
5613 5627 5655 5666 5655 5662 5656 5647 5630 5621 5621 5637 5668 5653 5689 5727 5736 5738 5749 5761 5752 5746 5746 5741 5735 5729 5720 5713 5705 5699 5692 5682 5675 5667 5661 5656 5650 5643 5638 5631 5625 5619 5615 5611
5595 5603 5642 5665 5665 5663 5656 5655 5647 5627 5633 5656 5665 5652 5701 5734 5747 5749 5755 5757 5748 5741 5741 5737 5729 5722 5717 5708 5701 5696 5688 5680 5672 5665 5660 5654 5649 5643 5636 5630 5624 5619 5617 5614
5592 5616 5650 5662 5671 5673 5658 5652 5671 5660 5651 5663 5663 5687 5715 5731 5739 5746 5752 5745 5741 5740 5735 5732 5724 5716 5712 5705 5697 5693 5687 5679 5671 5664 5659 5653 5647 5640 5634 5628 5623 5621 5617 5614
5570 5599 5640 5652 5661 5671 5670 5670 5642 5649 5631 5638 5664 5678 5706 5727 5737 5748 5747 5742 5738 5736 5732 5725 5718 5711 5708 5703 5695 5690 5684 5677 5670 5664 5659 5654 5647 5640 5634 5629 5624 5622 5619 5617
5555 5584 5622 5637 5654 5662 5651 5653 5653 5655 5652 5652 5662 5692 5727 5736 5742 5750 5753 5745 5740 5737 5730 5721 5713 5708 5705 5700 5693 5686 5681 5675 5669 5664 5659 5654 5647 5640 5635 5630 5626 5624 5622 5619
5532 5558 5603 5644 5659 5673 5671 5667 5665 5653 5639 5667 5676 5692 5729 5732 5742 5747 5751 5747 5741 5735 5727 5720 5712 5708 5702 5695 5691 5685 5679 5675 5669 5664 5658 5653 5647 5641 5637 5633 5628 5626 5625 5623
5510 5551 5594 5611 5630 5654 5658 5663 5664 5661 5661 5656 5661 5691 5722 5729 5737 5742 5745 5744 5734 5729 5724 5717 5710 5706 5701 5695 5691 5685 5679 5674 5669 5663 5658 5653 5649 5643 5639 5635 5631 5629 5628 5627
5503 5535 5561 5617 5631 5642 5643 5648 5651 5653 5651 5665 5678 5697 5720 5732 5738 5737 5736 5735 5734 5727 5722 5716 5710 5707 5701 5696 5692 5686 5679 5674 5668 5662 5659 5654 5649 5644 5640 5636 5633 5631 5630 5629
5496 5527 5550 5578 5592 5609 5638 5648 5651 5648 5665 5667 5680 5690 5712 5728 5730 5737 5740 5733 5727 5726 5723 5718 5713 5707 5701 5697 5691 5687 5682 5674 5669 5663 5659 5654 5650 5646 5641 5637 5634 5632 5631 5631
5501 5526 5547 5583 5597 5612 5620 5637 5649 5655 5663 5672 5681 5690 5716 5725 5735 5733 5737 5733 5731 5731 5725 5719 5715 5708 5704 5699 5693 5688 5682 5676 5671 5664 5661 5656 5652 5647 5643 5639 5635 5632 5631 5631
5498 5515 5537 5577 5586 5601 5613 5638 5643 5652 5668 5671 5670 5711 5713 5720 5734 5739 5738 5738 5738 5737 5731 5726 5720 5713 5708 5702 5696 5689 5684 5679 5673 5667 5663 5659 5654 5648 5644 5641 5637 5633 5630 5631
5500 5507 5532 5562 5580 5589 5630 5635 5655 5661 5664 5668 5686 5690 5693 5705 5722 5736 5742 5743 5743 5741 5736 5730 5725 5718 5712 5707 5699 5693 5687 5681 5676 5670 5666 5663 5659 5652 5647 5644 5641 5636 5633 5632
5500 5495 5531 5557 5581 5607 5617 5607 5612 5641 5639 5638 5650 5663 5677 5690 5712 5740 5746 5749 5752 5755 5750 5742 5734 5725 5716 5709 5702 5695 5689 5684 5680 5675 5670 5666 5664 5657 5650 5646 5644 5641 5638 5635
5494 5487 5518 5546 5575 5606 5583 5600 5612 5629 5639 5631 5641 5653 5665 5680 5709 5739 5721 5729 5742 5744 5751 5743 5736 5726 5717 5711 5705 5697 5692 5687 5683 5679 5675 5671 5668 5663 5656 5652 5648 5645 5642 5639
5498 5504 5515 5541 5559 5578 5578 5599 5614 5625 5625 5625 5638 5649 5661 5672 5704 5706 5715 5722 5739 5742 5740 5745 5738 5731 5723 5716 5709 5702 5696 5692 5690 5685 5679 5674 5670 5667 5663 5656 5652 5649 5647 5644
5505 5510 5520 5531 5558 5570 5571 5594 5601 5594 5610 5621 5636 5649 5660 5673 5688 5700 5713 5719 5731 5740 5744 5743 5739 5733 5726 5719 5713 5707 5700 5699 5694 5689 5682 5677 5673 5670 5666 5662 5656 5654 5651 5647
5497 5496 5512 5518 5540 5547 5561 5572 5583 5597 5608 5621 5634 5648 5661 5675 5689 5702 5712 5720 5731 5739 5742 5741 5744 5736 5727 5722 5720 5712 5707 5702 5696 5691 5686 5681 5676 5672 5669 5665 5661 5657 5654 5653
5484 5491 5506 5520 5527 5542 5556 5567 5580 5594 5608 5621 5636 5649 5662 5676 5691 5703 5714 5725 5734 5743 5746 5745 5738 5739 5730 5726 5723 5721 5713 5707 5700 5693 5689 5684 5680 5675 5671 5670 5667 5666 5661 5660
5488 5498 5501 5512 5522 5540 5557 5561 5572 5590 5609 5623 5638 5651 5663 5677 5691 5702 5715 5726 5737 5745 5747 5748 5744 5744 5739 5732 5728 5722 5715 5710 5703 5697 5691 5686 5684 5679 5675 5674 5673 5672 5671 5669
5485 5494 5505 5512 5515 5515 5537 5555 5568 5584 5603 5619 5635 5652 5665 5676 5691 5703 5715 5727 5738 5749 5750 5748 5745 5739 5740 5735 5732 5727 5720 5714 5707 5699 5695 5692 5688 5684 5682 5678 5673 5664 5668 5669